Lawton Fort Sill Regional Airport
KLAW : rendu visible

Aérodrome :











RETROUVEZ-NOUS SUR...

 
LOGIN :

S'inscrire | Disclaimer

   EN    FR    IT 

 









Légende :    VFR   VFR Marginal   IFR   IFR Intensif   IFR Très Intensif
Visi : 
Plafond : 
>= 8 km
>= 3000ft
5 à 8 km
1000 à 3000 ft
1500m à 5 km
500 à 1000 ft
800 à 1500m
200 à 500 ft
< 800m
< 200 ft
Symboles :   Orages  Brouillard  Fortes neiges  Fortes précipitations  Vent > 20 kt






- Altitude de l'aérodrome : 1110 ft


KLAW - Lawton Fort Sill Regional

DERNIER METAR :
  • 050053Z AUTO 07006KT 10SM BKN032 08/04 A3003 RMK AO2 SLP174 T00780039

METARs EXPIRÉS :
  • 042353Z AUTO 04009KT 10SM FEW037 10/04 A3003 RMK AO2 SLP172 T01000039 10111 20061 55006
  • 042253Z 05007KT 10SM BKN043 11/04 A3002 RMK AO2 SLP168 T01060039

TAF KLAW
Valide du 05 à 00h jusqu'au 06 à 00h UTC


042329Z 0500/0524 06007KT P6SM BKN050
FM050300 11004KT P6SM OVC025
FM051000 13008KT 4SM -DZ BR OVC012
FM051800 16011KT P6SM OVC025



MET'MAP, la Météo Aéronautique d'un coup d'oeil ! - Copyright ORBIFLY Décembre 2007 - Disclaimer

ORBIFLY MET'MAP TEAM :

Programmation & Développement : Alexandra Zaïnal
Sur une idée originale de : Baudouin d'Aumeries
Assistance à la programmation : Marc-Olivier Méhu
Soutien technique & logistique : Manuel Goepfert

Contact : metmap@orbifly.com




SOURCES & CREDITS :

   NOAA       Earth
Advisory